Location: ??????
(55.7522°N, 37.6156°E)
Time: 17:44:57
(UTC+00:00)

Cosmos 1844 Rocket - Pass Details

Date: 14 June 2025
Orbit: 822 x 844 km, 71.0° (Epoch: 12 July)

Event Time Altitude Azimuth Distance (km) Brightness Sun altitude
Exits shadow 21:13:21 12° 196° (SSW) 2,293 4.4 -10.9°
Maximum altitude 21:18:29 64° 118° (ESE) 938 2.8 -10.9°
Drops below altitude 10° 21:24:06 10° 38° (NE) 2,478 5.9 -10.9°
Sets 21:26:34 0° 35° (NE) 3,417 6.8 -10.9°
